Location: Boitzum
(52.1496°N, 9.6943°E)
Time: 09:38:38
(UTC+00:00)

Cosmos 921 Rocket - Pass Details

Date: 13 January 2026
Orbit: 564 x 620 km, 75.8° (Epoch: 19 February)

Event Time Altitude Azimuth Distance (km) Brightness Sun altitude
Rises 06:11:00 0° 218° (SW) 2,837 6.3 -10.8°
Reaches altitude 10° 06:13:19 10° 224° (SW) 1,930 5.4 -10.4°
Maximum altitude 06:17:27 45° 298° (WNW) 811 3.2 -9.9°
Drops below altitude 10° 06:21:32 10° 12° (NNE) 1,910 5.5 -9.3°
Sets 06:23:49 0° 19° (NNE) 2,805 6.4 -9.0°
